{"data":{"norad_id":52871,"epoch":"2026-09-19T11:49:37.128576Z","epoch_age_seconds":155823,"freshness":"FRESH","line1":"1 52871U 22062AT  26262.49279084 -.00003027  00000+0 -78491-4 0  9992","line2":"2 52871  53.1596 208.4801 0001058  84.9415 275.1708 15.34396737235538","mean_motion":15.34396737,"eccentricity":0.0001058,"inclination_deg":53.1596,"raan_deg":208.4801,"arg_perigee_deg":84.9415,"mean_anomaly_deg":275.1708,"bstar":-7.8491e-5,"rev_number":23553,"period_min":93.847957655035,"perigee_km":461.98917662444,"apogee_km":463.43670047144,"semimajor_km":6840.8499385479,"source":"CELESTRAK","updated_at":"2026-09-20T09:00:40.136278Z"}}